| time (UTC) | temp F | wind direction | speed MPH | gust MPH | rain 1hr in | rain 24hr in | rain mn in | humidity % | barometer mb |
| 20260510111804 | 54 | 347 | 8.0 | 16.0 | 0.00 | 0.00 | 0.00 | 74 | 1012.2 |
| 20260510111602 | 53 | 340 | 10.0 | 16.0 | 0.00 | 0.00 | 0.00 | 74 | 1011.9 |
| 20260510110804 | 53 | 7 | 9.0 | 14.0 | 0.00 | 0.00 | 0.00 | 75 | 1012.1 |
| 20260510110304 | 53 | 27 | 10.0 | 18.0 | 0.00 | 0.00 | 0.00 | 74 | 1012.1 |
| 20260510110058 | 53 | 5 | 10.0 | 18.0 | 0.00 | 0.00 | 0.00 | 75 | 1012.1 |
| 20260510104804 | 54 | 5 | 9.0 | 15.0 | 0.00 | 0.00 | 0.00 | 75 | 1012.2 |
| 20260510104558 | 53 | 345 | 11.0 | 16.0 | 0.00 | 0.00 | 0.00 | 74 | 1012.2 |
| 20260510103100 | 54 | 340 | 11.0 | 17.0 | 0.00 | 0.00 | 0.00 | 72 | 1012.2 |
| 20260510101804 | 55 | 330 | 11.0 | 15.0 | 0.00 | 0.00 | 0.00 | 73 | 1012.5 |
| 20260510101557 | 54 | 345 | 12.0 | 16.0 | 0.00 | 0.00 | 0.00 | 73 | 1012.5 |
| 20260510101305 | 54 | 323 | 13.0 | 16.0 | 0.00 | 0.00 | 0.00 | 73 | 1012.5 |
| 20260510100804 | 54 | 333 | 9.0 | 15.0 | 0.00 | 0.00 | 0.00 | 73 | 1012.6 |
| 20260510100101 | 54 | 350 | 11.0 | 19.0 | 0.00 | 0.00 | 0.00 | 73 | 1012.6 |
| 20260510094804 | 54 | 324 | 11.0 | 15.0 | 0.00 | 0.00 | 0.00 | 73 | 1012.8 |
| 20260510094600 | 53 | 329 | 9.0 | 17.0 | 0.00 | 0.00 | 0.00 | 72 | 1012.7 |
| 20260510094304 | 54 | 322 | 11.0 | 15.0 | 0.00 | 0.00 | 0.00 | 72 | 1012.8 |
| 20260510093804 | 56 | 310 | 12.0 | 17.0 | 0.00 | 0.00 | 0.00 | 72 | 1012.8 |
| 20260510093304 | 55 | 299 | 13.0 | 18.0 | 0.00 | 0.00 | 0.00 | 73 | 1012.7 |
| 20260510093058 | 55 | 284 | 14.0 | 18.0 | 0.00 | 0.00 | 0.00 | 73 | 1012.8 |
| 20260510091600 | 55 | 294 | 14.0 | 20.0 | 0.00 | 0.00 | 0.00 | 73 | 1012.7 |
| 20260510091304 | 55 | 301 | 13.0 | 16.0 | 0.00 | 0.00 | 0.00 | 74 | 1012.8 |
| 20260510090804 | 55 | 270 | 13.0 | 16.0 | 0.00 | 0.00 | 0.00 | 76 | 1012.7 |
| 20260510090304 | 54 | 291 | 13.0 | 16.0 | 0.00 | 0.00 | 0.00 | 75 | 1012.8 |
| 20260510084558 | 54 | 296 | 11.0 | 15.0 | 0.00 | 0.00 | 0.00 | 75 | 1012.7 |
| 20260510084304 | 55 | 299 | 12.0 | 15.0 | 0.00 | 0.00 | 0.00 | 76 | 1012.8 |
| 20260510083804 | 54 | 297 | 11.0 | 14.0 | 0.00 | 0.00 | 0.00 | 76 | 1012.8 |
| 20260510083304 | 54 | 306 | 12.0 | 14.0 | 0.00 | 0.00 | 0.00 | 77 | 1012.8 |
| 20260510083057 | 54 | 306 | 10.0 | 14.0 | 0.00 | 0.00 | 0.00 | 77 | 1012.7 |
| 20260510081804 | 54 | 306 | 10.0 | 13.0 | 0.00 | 0.00 | 0.00 | 76 | 1013.0 |
| 20260510081602 | 54 | 302 | 10.0 | 14.0 | 0.00 | 0.00 | 0.00 | 76 | 1013.1 |
| 20260510080804 | 54 | 307 | 11.0 | 14.0 | 0.00 | 0.00 | 0.00 | 75 | 1013.0 |
| 20260510080304 | 55 | 309 | 12.0 | 14.0 | 0.00 | 0.00 | 0.00 | 74 | 1013.1 |
| 20260510080057 | 54 | 294 | 11.0 | 14.0 | 0.00 | 0.00 | 0.00 | 74 | 1013.1 |
| 20260510074804 | 54 | 301 | 10.0 | 12.0 | 0.00 | 0.00 | 0.00 | 74 | 1013.1 |
| 20260510074605 | 53 | 299 | 6.0 | 12.0 | 0.00 | 0.00 | 0.00 | 74 | 1013.1 |
| 20260510073804 | 53 | 291 | 10.0 | 12.0 | 0.00 | 0.00 | 0.00 | 73 | 1013.2 |
| 20260510073304 | 53 | 282 | 10.0 | 13.0 | 0.00 | 0.00 | 0.00 | 72 | 1013.3 |
| 20260510073114 | 52 | 282 | 10.0 | 13.0 | 0.00 | 0.00 | 0.00 | 72 | 1013.2 |
| 20260510071804 | 53 | 292 | 10.0 | 12.0 | 0.00 | 0.00 | 0.00 | 72 | 1013.4 |
| 20260510071606 | 53 | 297 | 9.0 | 14.0 | 0.00 | 0.00 | 0.00 | 72 | 1013.3 |
| 20260510071304 | 54 | 286 | 11.0 | 14.0 | 0.00 | 0.00 | 0.00 | 73 | 1013.4 |
| 20260510070804 | 54 | 300 | 10.0 | 13.0 | 0.00 | 0.00 | 0.00 | 75 | 1013.4 |
| 20260510070306 | 54 | 281 | 7.0 | 13.0 | 0.00 | 0.00 | 0.00 | 77 | 1013.4 |
| 20260510070058 | 54 | 280 | 7.0 | 13.0 | 0.00 | 0.00 | 0.00 | 77 | 1013.5 |
| 20260510064804 | 54 | 255 | 10.0 | 15.0 | 0.00 | 0.00 | 0.00 | 79 | 1013.7 |
| 20260510064602 | 53 | 258 | 10.0 | 15.0 | 0.00 | 0.00 | 0.00 | 78 | 1013.6 |
| 20260510064305 | 53 | 232 | 11.0 | 14.0 | 0.00 | 0.00 | 0.00 | 78 | 1013.7 |
| 20260510063305 | 53 | 242 | 10.0 | 14.0 | 0.00 | 0.00 | 0.00 | 79 | 1013.8 |
| 20260510063103 | 52 | 247 | 8.0 | 12.0 | 0.00 | 0.00 | 0.00 | 78 | 1013.7 |
| 20260510061557 | 51 | 213 | 5.0 | 12.0 | 0.00 | 0.00 | 0.00 | 77 | 1013.9 |
| 20260510061304 | 52 | 203 | 7.0 | 12.0 | 0.00 | 0.00 | 0.00 | 77 | 1013.9 |
| 20260510060306 | 51 | 211 | 8.0 | 15.0 | 0.00 | 0.00 | 0.00 | 78 | 1014.0 |
| 20260510060059 | 51 | 204 | 8.0 | 15.0 | 0.00 | 0.00 | 0.00 | 78 | 1014.0 |
| 20260510054804 | 50 | 222 | 9.0 | 13.0 | 0.00 | 0.00 | 0.00 | 79 | 1014.1 |
| 20260510054557 | 49 | 210 | 8.0 | 15.0 | 0.00 | 0.00 | 0.00 | 79 | 1014.0 |
| 20260510054304 | 49 | 220 | 9.0 | 14.0 | 0.00 | 0.00 | 0.00 | 79 | 1014.1 |
| 20260510053804 | 49 | 215 | 10.0 | 14.0 | 0.00 | 0.00 | 0.00 | 79 | 1014.1 |
| 20260510053304 | 48 | 216 | 11.0 | 14.0 | 0.00 | 0.00 | 0.00 | 79 | 1014.1 |
| 20260510053057 | 48 | 209 | 11.0 | 14.0 | 0.00 | 0.00 | 0.00 | 78 | 1014.2 |
| 20260510051804 | 48 | 211 | 12.0 | 14.0 | 0.00 | 0.00 | 0.00 | 79 | 1014.4 |
| 20260510051558 | 47 | 196 | 10.0 | 15.0 | 0.00 | 0.00 | 0.00 | 78 | 1014.4 |
| 20260510050804 | 47 | 220 | 12.0 | 15.0 | 0.00 | 0.00 | 0.00 | 79 | 1014.6 |
| 20260510050304 | 47 | 213 | 11.0 | 14.0 | 0.00 | 0.00 | 0.00 | 79 | 1014.6 |
| 20260510050056 | 47 | 208 | 10.0 | 16.0 | 0.00 | 0.00 | 0.00 | 78 | 1014.5 |
| 20260510044804 | 47 | 208 | 10.0 | 15.0 | 0.00 | 0.00 | 0.00 | 78 | 1014.7 |
| 20260510044558 | 46 | 212 | 9.0 | 15.0 | 0.00 | 0.00 | 0.00 | 77 | 1014.6 |
| 20260510044304 | 47 | 207 | 10.0 | 14.0 | 0.00 | 0.00 | 0.00 | 78 | 1014.7 |
| 20260510043304 | 47 | 214 | 11.0 | 15.0 | 0.00 | 0.00 | 0.00 | 78 | 1014.8 |
| 20260510043109 | 46 | 209 | 10.0 | 14.0 | 0.00 | 0.00 | 0.00 | 77 | 1014.7 |
| 20260510041804 | 46 | 205 | 11.0 | 14.0 | 0.00 | 0.00 | 0.00 | 77 | 1014.9 |
| 20260510041559 | 45 | 200 | 11.0 | 15.0 | 0.00 | 0.00 | 0.00 | 77 | 1014.9 |
| 20260510041304 | 46 | 206 | 10.0 | 14.0 | 0.00 | 0.00 | 0.00 | 77 | 1014.9 |
| 20260510040304 | 46 | 205 | 11.0 | 16.0 | 0.00 | 0.00 | 0.00 | 77 | 1015.0 |
| 20260510040110 | 45 | 210 | 11.0 | 16.0 | 0.00 | 0.00 | 0.00 | 76 | 1015.0 |
| 20260510034804 | 45 | 201 | 10.0 | 16.0 | 0.00 | 0.00 | 0.00 | 77 | 1015.2 |
| 20260510034604 | 44 | 203 | 11.0 | 16.0 | 0.00 | 0.00 | 0.00 | 77 | 1015.2 |
| 20260510034304 | 45 | 199 | 11.0 | 15.0 | 0.00 | 0.00 | 0.00 | 76 | 1015.3 |
| 20260510033305 | 45 | 202 | 10.0 | 16.0 | 0.00 | 0.00 | 0.00 | 76 | 1015.4 |
| 20260510033108 | 44 | 210 | 10.0 | 17.0 | 0.00 | 0.00 | 0.00 | 76 | 1015.3 |
| 20260510031804 | 45 | 203 | 11.0 | 14.0 | 0.00 | 0.00 | 0.00 | 77 | 1015.6 |
| 20260510031600 | 44 | 202 | 9.0 | 15.0 | 0.00 | 0.00 | 0.00 | 77 | 1015.6 |
| 20260510031304 | 44 | 203 | 10.0 | 15.0 | 0.00 | 0.00 | 0.00 | 77 | 1015.6 |
| 20260510030804 | 44 | 208 | 10.0 | 15.0 | 0.00 | 0.00 | 0.00 | 78 | 1015.8 |
| 20260510030304 | 44 | 204 | 11.0 | 14.0 | 0.00 | 0.00 | 0.00 | 78 | 1015.8 |
| 20260510030059 | 44 | 195 | 9.0 | 14.0 | 0.00 | 0.00 | 0.00 | 77 | 1015.8 |
| 20260510024804 | 44 | 205 | 9.0 | 13.0 | 0.00 | 0.00 | 0.00 | 78 | 1016.0 |
| 20260510024559 | 43 | 197 | 8.0 | 15.0 | 0.00 | 0.00 | 0.00 | 78 | 1015.9 |
| 20260510024304 | 44 | 204 | 10.0 | 15.0 | 0.00 | 0.00 | 0.00 | 79 | 1016.0 |
| 20260510023804 | 44 | 203 | 10.0 | 13.0 | 0.00 | 0.00 | 0.00 | 79 | 1016.1 |
| 20260510023304 | 43 | 205 | 9.0 | 14.0 | 0.00 | 0.00 | 0.00 | 80 | 1016.2 |
| 20260510023057 | 43 | 207 | 10.0 | 14.0 | 0.00 | 0.00 | 0.00 | 79 | 1016.1 |
| 20260510021804 | 43 | 204 | 9.0 | 14.0 | 0.00 | 0.00 | 0.00 | 81 | 1016.3 |
| 20260510021603 | 42 | 211 | 10.0 | 15.0 | 0.00 | 0.00 | 0.00 | 80 | 1016.2 |
| 20260510021304 | 43 | 208 | 10.0 | 14.0 | 0.00 | 0.00 | 0.00 | 81 | 1016.4 |
| 20260510020804 | 42 | 208 | 12.0 | 15.0 | 0.00 | 0.00 | 0.00 | 81 | 1016.3 |
| 20260510020304 | 42 | 209 | 10.0 | 14.0 | 0.00 | 0.00 | 0.00 | 82 | 1016.4 |
| 20260510020059 | 42 | 200 | 10.0 | 15.0 | 0.00 | 0.00 | 0.00 | 81 | 1016.4 |
| 20260510014621 | 41 | 199 | 10.0 | 12.0 | 0.00 | 0.00 | 0.00 | 82 | 1016.5 |
| 20260510014304 | 42 | 201 | 9.0 | 12.0 | 0.00 | 0.00 | 0.00 | 82 | 1016.7 |
| 20260510013804 | 42 | 200 | 9.0 | 12.0 | 0.00 | 0.00 | 0.00 | 82 | 1016.7 |
| 20260510013304 | 42 | 203 | 9.0 | 12.0 | 0.00 | 0.00 | 0.00 | 82 | 1016.8 |
| 20260510013104 | 41 | 204 | 8.0 | 11.0 | 0.00 | 0.00 | 0.00 | 82 | 1016.8 |
| 20260510011601 | 41 | 202 | 8.0 | 11.0 | 0.00 | 0.00 | 0.00 | 82 | 1017.0 |
| 20260510011304 | 42 | 197 | 9.0 | 12.0 | 0.00 | 0.00 | 0.00 | 83 | 1017.0 |
| 20260510010804 | 41 | 196 | 9.0 | 12.0 | 0.00 | 0.00 | 0.00 | 83 | 1017.1 |
| 20260510010304 | 41 | 195 | 8.0 | 12.0 | 0.00 | 0.00 | 0.00 | 82 | 1017.2 |
| 20260510010059 | 41 | 195 | 8.0 | 11.0 | 0.00 | 0.00 | 0.00 | 82 | 1017.1 |
| 20260510004804 | 41 | 203 | 9.0 | 10.0 | 0.00 | 0.00 | 0.00 | 82 | 1017.4 |
| 20260510004558 | 41 | 204 | 8.0 | 11.0 | 0.00 | 0.00 | 0.00 | 82 | 1017.3 |
| 20260510004304 | 41 | 204 | 9.0 | 12.0 | 0.00 | 0.00 | 0.00 | 83 | 1017.4 |
| 20260510003804 | 41 | 202 | 9.0 | 10.0 | 0.00 | 0.00 | 0.00 | 83 | 1017.4 |
| 20260510003107 | 41 | 201 | 9.0 | 10.0 | 0.00 | 0.00 | 0.00 | 82 | 1017.6 |
| 20260510001805 | 40 | 234 | 8.0 | 9.0 | 0.00 | 0.00 | 0.00 | 82 | 1017.7 |
| 20260510001557 | 40 | 234 | 8.0 | 10.0 | 0.00 | 0.00 | 0.00 | 81 | 1017.7 |
| 20260510001304 | 41 | 234 | 8.0 | 9.0 | 0.00 | 0.00 | 0.00 | 82 | 1017.7 |
| 20260510000804 | 41 | 234 | 9.0 | 10.0 | 0.00 | 0.00 | 0.00 | 82 | 1017.8 |
| 20260510000305 | 41 | 234 | 9.0 | 10.0 | 0.00 | 0.00 | 0.00 | 82 | 1017.9 |
| 20260510000059 | 41 | 234 | 9.0 | 10.0 | 0.00 | 0.00 | 0.00 | 81 | 1017.9 |
| 20260509234805 | 41 | 234 | 9.0 | 10.0 | 0.00 | 0.00 | 0.00 | 82 | 1018.1 |
| 20260509234605 | 41 | 234 | 8.0 | 10.0 | 0.00 | 0.00 | 0.00 | 81 | 1018.1 |
| 20260509234304 | 41 | 234 | 9.0 | 10.0 | 0.00 | 0.00 | 0.00 | 82 | 1018.1 |
| 20260509233804 | 41 | 234 | 9.0 | 10.0 | 0.00 | 0.00 | 0.00 | 82 | 1018.2 |
| 20260509233304 | 41 | 234 | 9.0 | 10.0 | 0.00 | 0.00 | 0.00 | 82 | 1018.2 |
| 20260509233057 | 41 | 234 | 8.0 | 10.0 | 0.00 | 0.00 | 0.00 | 81 | 1018.2 |
| 20260509231804 | 41 | 234 | 8.0 | 9.0 | 0.00 | 0.00 | 0.00 | 82 | 1018.3 |
| 20260509231559 | 41 | 234 | 8.0 | 10.0 | 0.00 | 0.00 | 0.00 | 81 | 1018.2 |
| 20260509230804 | 41 | 234 | 9.0 | 10.0 | 0.00 | 0.00 | 0.00 | 82 | 1018.4 |
| 20260509230304 | 41 | 234 | 8.0 | 10.0 | 0.00 | 0.00 | 0.00 | 81 | 1018.5 |
| 20260509230058 | 40 | 234 | 8.0 | 10.0 | 0.00 | 0.00 | 0.00 | 81 | 1018.5 |
| 20260509224611 | 40 | 250 | 7.0 | 9.0 | 0.00 | 0.00 | 0.00 | 80 | 1018.6 |
| 20260509224304 | 41 | 250 | 7.0 | 9.0 | 0.00 | 0.00 | 0.00 | 81 | 1018.7 |
| 20260509223804 | 41 | 282 | 5.0 | 7.0 | 0.00 | 0.00 | 0.00 | 80 | 1018.7 |
| 20260509223304 | 41 | 20 | 3.0 | 5.0 | 0.00 | 0.00 | 0.00 | 80 | 1018.6 |
| 20260509223104 | 40 | 20 | 3.0 | 5.0 | 0.00 | 0.00 | 0.00 | 79 | 1018.7 |
| 20260509221606 | 41 | 20 | 2.0 | 3.0 | 0.00 | 0.00 | 0.00 | 79 | 1018.7 |
| 20260509221304 | 41 | 20 | 2.0 | 3.0 | 0.00 | 0.00 | 0.00 | 79 | 1018.8 |
| 20260509220057 | 41 | 20 | 2.0 | 4.0 | 0.00 | 0.00 | 0.00 | 78 | 1018.8 |
| 20260509214805 | 42 | 20 | 3.0 | 3.0 | 0.00 | 0.00 | 0.00 | 78 | 1019.0 |
| 20260509214608 | 42 | 20 | 3.0 | 4.0 | 0.00 | 0.00 | 0.00 | 77 | 1019.0 |
| 20260509214304 | 42 | 20 | 3.0 | 3.0 | 0.00 | 0.00 | 0.00 | 78 | 1019.0 |
| 20260509213804 | 43 | 20 | 3.0 | 3.0 | 0.00 | 0.00 | 0.00 | 77 | 1019.2 |
| 20260509213305 | 43 | 20 | 4.0 | 5.0 | 0.00 | 0.00 | 0.00 | 78 | 1019.2 |
| 20260509213057 | 43 | 20 | 4.0 | 5.0 | 0.00 | 0.00 | 0.00 | 77 | 1019.1 |
| 20260509211559 | 43 | 20 | 4.0 | 5.0 | 0.00 | 0.00 | 0.00 | 76 | 1019.2 |
| 20260509211304 | 44 | 20 | 4.0 | 5.0 | 0.00 | 0.00 | 0.00 | 77 | 1019.3 |
| 20260509210804 | 44 | 20 | 3.0 | 5.0 | 0.00 | 0.00 | 0.00 | 77 | 1019.2 |
| 20260509210304 | 45 | 20 | 3.0 | 3.0 | 0.00 | 0.00 | 0.00 | 76 | 1019.2 |
| 20260509210115 | 44 | 20 | 3.0 | 4.0 | 0.00 | 0.00 | 0.00 | 76 | 1019.2 |
| 20260509204804 | 45 | 20 | 3.0 | 3.0 | 0.00 | 0.00 | 0.00 | 76 | 1019.2 |
| 20260509204559 | 45 | 20 | 3.0 | 4.0 | 0.00 | 0.00 | 0.00 | 75 | 1019.2 |
| 20260509204304 | 46 | 20 | 3.0 | 3.0 | 0.00 | 0.00 | 0.00 | 76 | 1019.2 |
| 20260509203804 | 46 | 20 | 3.0 | 3.0 | 0.00 | 0.00 | 0.00 | 76 | 1019.2 |
| 20260509203304 | 46 | 20 | 3.0 | 3.0 | 0.00 | 0.00 | 0.00 | 76 | 1019.2 |
| 20260509203056 | 46 | 20 | 3.0 | 4.0 | 0.00 | 0.00 | 0.00 | 75 | 1019.1 |
| 20260509201804 | 47 | 20 | 1.0 | 2.0 | 0.00 | 0.00 | 0.00 | 75 | 1019.2 |
| 20260509201601 | 47 | 20 | 1.0 | 2.0 | 0.00 | 0.00 | 0.00 | 74 | 1019.2 |
| 20260509200804 | 48 | 20 | 1.0 | 2.0 | 0.00 | 0.00 | 0.00 | 75 | 1019.2 |
| 20260509200304 | 48 | 20 | 0.0 | 0.0 | 0.00 | 0.00 | 0.00 | 74 | 1019.3 |
| 20260509200105 | 48 | 0 | 0.0 | 0.0 | 0.00 | 0.00 | 0.00 | 74 | 1019.3 |
| 20260509194804 | 49 | 20 | 0.0 | 0.0 | 0.00 | 0.00 | 0.00 | 73 | 1019.4 |
| 20260509194603 | 49 | 0 | 0.0 | 0.0 | 0.00 | 0.00 | 0.00 | 73 | 1019.3 |
| 20260509194304 | 50 | 20 | 0.0 | 0.0 | 0.00 | 0.00 | 0.00 | 73 | 1019.3 |
| 20260509193804 | 50 | 20 | 0.0 | 0.0 | 0.00 | 0.00 | 0.00 | 73 | 1019.3 |
| 20260509193304 | 50 | 20 | 0.0 | 0.0 | 0.00 | 0.00 | 0.00 | 72 | 1019.3 |
| 20260509193058 | 50 | 0 | 0.0 | 0.0 | 0.00 | 0.00 | 0.00 | 72 | 1019.3 |
| 20260509191804 | 52 | 20 | 0.0 | 0.0 | 0.00 | 0.00 | 0.00 | 70 | 1019.3 |
| 20260509191603 | 51 | 0 | 0.0 | 0.0 | 0.00 | 0.00 | 0.00 | 70 | 1019.2 |
| 20260509191304 | 52 | 20 | 0.0 | 0.0 | 0.00 | 0.00 | 0.00 | 70 | 1019.3 |
| 20260509190806 | 52 | 20 | 0.0 | 0.0 | 0.00 | 0.00 | 0.00 | 69 | 1019.3 |
| 20260509190108 | 53 | 0 | 0.0 | 2.0 | 0.00 | 0.00 | 0.00 | 68 | 1019.2 |
| 20260509184804 | 55 | 20 | 0.0 | 0.0 | 0.00 | 0.00 | 0.00 | 66 | 1019.1 |
| 20260509184556 | 54 | 0 | 0.0 | 1.0 | 0.00 | 0.00 | 0.00 | 65 | 1019.1 |
| 20260509184304 | 55 | 20 | 0.0 | 0.0 | 0.00 | 0.00 | 0.00 | 65 | 1019.2 |
| 20260509183805 | 55 | 20 | 0.0 | 2.0 | 0.00 | 0.00 | 0.00 | 65 | 1019.2 |
| 20260509183304 | 55 | 20 | 1.0 | 3.0 | 0.00 | 0.00 | 0.00 | 65 | 1019.2 |
| 20260509183057 | 55 | 0 | 0.0 | 3.0 | 0.00 | 0.00 | 0.00 | 64 | 1019.2 |
| 20260509181601 | 56 | 20 | 1.0 | 4.0 | 0.00 | 0.00 | 0.00 | 64 | 1019.1 |
| 20260509181304 | 56 | 20 | 2.0 | 3.0 | 0.00 | 0.00 | 0.00 | 63 | 1019.2 |
| 20260509180304 | 57 | 3 | 3.0 | 5.0 | 0.00 | 0.00 | 0.00 | 65 | 1019.3 |
| 20260509180100 | 56 | 1 | 1.0 | 4.0 | 0.00 | 0.00 | 0.00 | 64 | 1019.3 |
| 20260509174804 | 57 | 1 | 3.0 | 5.0 | 0.00 | 0.00 | 0.00 | 61 | 1019.3 |
| 20260509174557 | 57 | 1 | 3.0 | 5.0 | 0.00 | 0.00 | 0.00 | 61 | 1019.2 |
| 20260509174304 | 57 | 0 | 3.0 | 5.0 | 0.00 | 0.00 | 0.00 | 61 | 1019.3 |
| 20260509173804 | 57 | 21 | 3.0 | 5.0 | 0.00 | 0.00 | 0.00 | 60 | 1019.4 |
| 20260509173304 | 57 | 21 | 4.0 | 5.0 | 0.00 | 0.00 | 0.00 | 58 | 1019.4 |
| 20260509173057 | 57 | 21 | 3.0 | 5.0 | 0.00 | 0.00 | 0.00 | 59 | 1019.4 |
| 20260509171804 | 57 | 26 | 3.0 | 5.0 | 0.00 | 0.00 | 0.00 | 56 | 1019.5 |
| 20260509171557 | 57 | 26 | 3.0 | 6.0 | 0.00 | 0.00 | 0.00 | 55 | 1019.5 |
| 20260509170804 | 57 | 26 | 4.0 | 6.0 | 0.00 | 0.00 | 0.00 | 60 | 1019.5 |
| 20260509170304 | 57 | 11 | 3.0 | 5.0 | 0.00 | 0.00 | 0.00 | 61 | 1019.6 |
| 20260509170106 | 57 | 4 | 2.0 | 7.0 | 0.00 | 0.00 | 0.00 | 61 | 1019.5 |
| 20260509164804 | 57 | 14 | 3.0 | 8.0 | 0.00 | 0.00 | 0.00 | 58 | 1019.8 |
| 20260509164559 | 57 | 12 | 4.0 | 8.0 | 0.00 | 0.00 | 0.00 | 57 | 1019.7 |
| 20260509163804 | 58 | 15 | 4.0 | 5.0 | 0.00 | 0.00 | 0.00 | 58 | 1019.8 |
| 20260509163304 | 58 | 45 | 4.0 | 8.0 | 0.00 | 0.00 | 0.00 | 58 | 1019.9 |
| 20260509163059 | 58 | 50 | 1.0 | 8.0 | 0.00 | 0.00 | 0.00 | 58 | 1019.8 |
| 20260509161804 | 57 | 38 | 3.0 | 6.0 | 0.00 | 0.00 | 0.00 | 61 | 1020.1 |
| 20260509161600 | 57 | 39 | 3.0 | 9.0 | 0.00 | 0.00 | 0.00 | 60 | 1020.1 |
| 20260509161304 | 57 | 25 | 5.0 | 9.0 | 0.00 | 0.00 | 0.00 | 61 | 1020.1 |
| 20260509160804 | 58 | 18 | 2.0 | 5.0 | 0.00 | 0.00 | 0.00 | 61 | 1020.1 |
| 20260509160304 | 57 | 14 | 1.0 | 8.0 | 0.00 | 0.00 | 0.00 | 61 | 1020.3 |
| 20260509160058 | 57 | 316 | 2.0 | 8.0 | 0.00 | 0.00 | 0.00 | 60 | 1020.2 |
| 20260509154601 | 56 | 11 | 5.0 | 10.0 | 0.00 | 0.00 | 0.00 | 60 | 1020.5 |
| 20260509153804 | 57 | 353 | 5.0 | 8.0 | 0.00 | 0.00 | 0.00 | 60 | 1020.7 |
| 20260509153305 | 57 | 351 | 5.0 | 9.0 | 0.00 | 0.00 | 0.00 | 61 | 1020.7 |
| 20260509153102 | 56 | 360 | 5.0 | 9.0 | 0.00 | 0.00 | 0.00 | 61 | 1020.6 |
| 20260509151804 | 57 | 337 | 5.0 | 9.0 | 0.00 | 0.00 | 0.00 | 61 | 1020.9 |
| 20260509151604 | 56 | 310 | 5.0 | 10.0 | 0.00 | 0.00 | 0.00 | 60 | 1020.8 |
| 20260509151304 | 57 | 335 | 6.0 | 10.0 | 0.00 | 0.00 | 0.00 | 61 | 1020.9 |
| 20260509150804 | 57 | 351 | 5.0 | 8.0 | 0.00 | 0.00 | 0.00 | 62 | 1021.0 |
| 20260509150304 | 57 | 354 | 7.0 | 10.0 | 0.00 | 0.00 | 0.00 | 62 | 1021.1 |
| 20260509150100 | 56 | 350 | 7.0 | 10.0 | 0.00 | 0.00 | 0.00 | 62 | 1021.1 |
| 20260509144805 | 56 | 4 | 5.0 | 8.0 | 0.00 | 0.00 | 0.00 | 62 | 1021.3 |
| 20260509144605 | 56 | 329 | 5.0 | 10.0 | 0.00 | 0.00 | 0.00 | 62 | 1021.2 |
| 20260509144304 | 56 | 1 | 7.0 | 10.0 | 0.00 | 0.00 | 0.00 | 61 | 1021.3 |
| 20260509143304 | 56 | 343 | 7.0 | 12.0 | 0.00 | 0.00 | 0.00 | 62 | 1021.3 |
| 20260509143058 | 56 | 321 | 5.0 | 11.0 | 0.00 | 0.00 | 0.00 | 62 | 1021.2 |
| 20260509141804 | 57 | 8 | 9.0 | 12.0 | 0.00 | 0.00 | 0.00 | 62 | 1021.5 |
| 20260509141557 | 56 | 4 | 8.0 | 12.0 | 0.00 | 0.00 | 0.00 | 61 | 1021.5 |
| 20260509140804 | 57 | 6 | 10.0 | 12.0 | 0.00 | 0.00 | 0.00 | 63 | 1021.6 |
| 20260509140304 | 57 | 16 | 9.0 | 13.0 | 0.00 | 0.00 | 0.00 | 64 | 1021.7 |
| 20260509140105 | 57 | 350 | 8.0 | 13.0 | 0.00 | 0.00 | 0.00 | 63 | 1021.8 |
| 20260509134804 | 56 | 11 | 9.0 | 12.0 | 0.00 | 0.00 | 0.00 | 65 | 1021.8 |
| 20260509134630 | 56 | 17 | 9.0 | 14.0 | 0.00 | 0.00 | 0.00 | 65 | 1021.9 |
| 20260509133804 | 57 | 0 | 7.0 | 12.0 | 0.00 | 0.00 | 0.00 | 64 | 1022.0 |
| 20260509133304 | 57 | 333 | 10.0 | 12.0 | 0.00 | 0.00 | 0.00 | 66 | 1022.0 |
| 20260509133110 | 56 | 340 | 7.0 | 12.0 | 0.00 | 0.00 | 0.00 | 65 | 1021.9 |
| 20260509131557 | 55 | 297 | 8.0 | 13.0 | 0.00 | 0.00 | 0.00 | 65 | 1022.1 |
| 20260509130804 | 56 | 324 | 10.0 | 13.0 | 0.00 | 0.00 | 0.00 | 64 | 1022.3 |
| 20260509130305 | 56 | 332 | 10.0 | 12.0 | 0.00 | 0.00 | 0.00 | 65 | 1022.3 |
| 20260509130111 | 56 | 319 | 9.0 | 13.0 | 0.00 | 0.00 | 0.00 | 64 | 1022.3 |
| 20260509124804 | 56 | 318 | 10.0 | 13.0 | 0.00 | 0.00 | 0.00 | 65 | 1022.4 |
| 20260509124602 | 56 | 323 | 9.0 | 13.0 | 0.00 | 0.00 | 0.00 | 65 | 1022.4 |
| 20260509124304 | 56 | 314 | 8.0 | 12.0 | 0.00 | 0.00 | 0.00 | 65 | 1022.5 |
| 20260509123057 | 56 | 354 | 9.0 | 13.0 | 0.00 | 0.00 | 0.00 | 64 | 1022.5 |
| 20260509121804 | 56 | 329 | 9.0 | 12.0 | 0.00 | 0.00 | 0.00 | 62 | 1022.7 |
| 20260509121557 | 56 | 331 | 8.0 | 13.0 | 0.00 | 0.00 | 0.00 | 62 | 1022.7 |
| 20260509121304 | 56 | 323 | 9.0 | 13.0 | 0.00 | 0.00 | 0.00 | 62 | 1022.8 |
| 20260509120804 | 57 | 332 | 8.0 | 13.0 | 0.00 | 0.00 | 0.00 | 62 | 1022.8 |
| 20260509120057 | 56 | 323 | 8.0 | 13.0 | 0.00 | 0.00 | 0.00 | 61 | 1022.9 |
| 20260509114804 | 56 | 352 | 10.0 | 13.0 | 0.00 | 0.00 | 0.00 | 60 | 1023.0 |
| 20260509114558 | 56 | 331 | 10.0 | 13.0 | 0.00 | 0.00 | 0.00 | 60 | 1023.0 |
| 20260509114304 | 57 | 323 | 10.0 | 12.0 | 0.00 | 0.00 | 0.00 | 59 | 1023.1 |
| 20260509113804 | 56 | 330 | 9.0 | 12.0 | 0.00 | 0.00 | 0.00 | 60 | 1023.1 |
| 20260509113304 | 56 | 322 | 8.0 | 13.0 | 0.00 | 0.00 | 0.00 | 59 | 1023.1 |
| 20260509113058 | 55 | 306 | 8.0 | 13.0 | 0.00 | 0.00 | 0.00 | 59 | 1023.0 |